Wind_Speed
36 33 33 22 17 14 9 7 7 6 3 5 8 14 17 14 13 13 15 16 15 16 15 14 13 12 11 9 8 8 8 8 8 9 9 11 13 15 16 18 19 20 21 23
36 41 40 31 24 22 17 14 11 10 9 8 9 10 10 9 11 17 14 11 8 8 8 9 8 8 7 5 4 4 3 4 6 9 12 15 16 18 20 22 23 24 25 25
43 45 45 37 32 30 27 22 18 14 13 14 12 12 11 11 12 15 13 9 8 6 3 2 4 4 2 1 1 1 3 5 9 11 13 16 19 20 22 25 27 28 26 26
51 50 48 42 38 37 34 32 25 20 20 17 16 14 13 13 18 18 17 14 11 11 8 7 6 6 5 5 5 5 7 9 12 15 17 19 22 24 26 28 29 31 28 28
58 56 54 47 45 43 45 40 33 28 27 19 21 19 16 17 17 22 20 19 18 16 14 12 10 9 9 8 8 9 12 15 18 19 21 23 25 26 28 31 30 30 30 31
67 62 61 54 53 50 50 42 38 33 32 25 27 25 21 23 18 21 23 24 24 21 17 13 13 13 13 13 15 17 18 21 23 24 25 27 27 28 31 32 32 33 36 36
77 69 68 61 56 58 56 45 39 34 33 30 34 31 29 27 24 23 23 24 24 23 20 17 16 17 17 19 21 23 25 27 29 29 30 29 29 31 33 34 36 38 40 41
82 76 74 69 62 62 61 54 46 43 39 38 42 36 38 33 29 30 29 27 27 26 24 23 21 20 23 25 27 29 29 30 31 31 32 32 32 34 35 37 40 41 43 45
87 83 85 79 75 70 66 63 53 51 47 45 44 45 44 35 35 39 37 34 32 31 30 30 29 28 30 31 33 33 33 33 32 33 34 34 34 36 38 40 42 44 46 48
92 90 88 87 85 79 71 69 66 56 51 45 47 46 48 42 41 42 39 38 38 35 35 34 33 33 34 35 36 36 36 37 35 35 35 35 36 38 41 43 45 48 49 50
90 95 94 94 90 84 79 75 71 63 57 51 49 49 55 45 46 47 46 42 41 41 41 38 36 38 39 39 40 40 40 39 39 37 37 37 40 43 45 48 50 49 48 47
84 92 98 94 93 93 90 85 82 74 60 55 52 54 61 51 47 49 50 48 48 46 46 43 41 43 44 43 43 41 41 41 42 41 39 41 42 45 48 50 52 46 44 45
83 82 93 99 99 99 94 88 82 77 70 62 57 56 59 64 55 53 53 50 49 47 48 47 45 46 47 46 45 43 44 45 45 43 43 44 46 47 51 53 48 43 45 48
79 81 84 93 98 99 99 93 89 86 78 69 59 62 62 65 66 63 57 53 52 51 51 50 49 50 48 47 48 48 48 49 49 49 48 48 49 50 50 49 43 45 43 48
69 78 80 90 96 102 102 98 96 93 84 77 68 63 65 66 75 71 64 57 54 53 56 55 55 51 51 50 51 51 53 54 52 53 54 53 54 53 49 44 43 45 43 49
60 69 76 84 91 101 106 103 100 97 93 86 79 69 70 72 76 73 66 63 60 59 60 60 57 54 55 54 54 55 58 58 57 58 59 58 58 53 49 47 43 44 44 47
60 61 72 75 89 96 105 103 100 96 95 92 84 73 78 79 79 76 72 67 66 65 64 63 61 58 57 57 57 60 63 61 63 64 64 61 57 54 53 49 48 47 48 51
62 59 63 71 82 91 89 100 104 102 97 95 90 86 78 80 84 83 75 70 68 68 68 67 65 62 61 60 61 63 67 64 68 70 68 64 61 57 53 52 53 53 57 54
64 61 61 62 73 80 83 96 104 106 100 94 90 85 83 85 86 85 77 75 72 71 72 72 70 66 64 63 67 68 70 69 71 71 70 67 64 60 58 56 56 60 62 62
64 60 60 60 64 69 82 83 91 103 100 95 91 88 85 90 88 87 82 80 77 76 76 76 74 72 69 70 71 73 72 72 73 72 72 68 64 62 61 62 63 65 67 70
64 60 58 58 63 65 69 78 86 96 95 98 96 92 92 90 93 92 85 84 81 80 80 81 79 77 75 75 76 75 75 74 72 70 69 68 64 63 63 67 69 70 71 68
65 63 60 61 60 59 61 66 78 86 88 96 97 95 94 90 90 91 88 86 85 84 83 85 83 81 78 78 78 79 76 72 70 67 68 70 69 68 70 71 73 72 71 66
66 63 58 60 60 52 54 59 67 72 79 92 96 95 95 93 92 89 87 87 86 87 85 83 83 82 80 80 79 79 74 70 67 67 67 69 71 74 73 74 74 73 71 64
65 62 59 57 52 48 54 56 60 67 73 83 92 94 94 92 91 88 85 85 84 82 82 82 81 78 79 78 78 77 75 71 69 69 68 72 74 75 75 74 74 72 73 74
61 62 59 49 48 47 52 51 58 61 65 71 83 89 90 88 87 86 86 85 82 80 79 79 78 76 77 78 78 79 74 73 71 70 73 74 73 73 73 74 74 74 77 75
53 55 54 49 44 40 37 45 47 53 56 68 75 83 85 84 84 83 81 83 80 79 78 79 78 75 77 78 80 80 75 73 74 76 78 76 74 77 75 73 76 78 78 78
Wind_Direction
246 254 258 249 251 250 247 231 240 172 115 135 135 140 138 128 130 131 128 127 122 117 116 117 120 121 119 117 110 99 79 67 54 35 19 8 1 2 357 350 346 344 341 337
242 244 249 248 244 248 242 233 226 229 190 190 169 162 161 158 153 148 145 149 152 136 122 126 122 120 117 113 93 76 77 52 19 8 0 351 349 348 344 342 339 338 335 333
241 240 246 246 245 246 245 236 231 224 229 218 203 186 182 178 177 175 172 186 210 191 141 175 167 167 170 195 217 308 312 324 337 343 342 337 337 339 339 336 334 333 334 332
242 244 246 244 245 245 244 239 231 229 232 230 224 217 205 202 202 197 202 218 228 220 227 210 218 234 254 254 255 272 296 314 322 326 329 332 334 334 333 332 334 335 335 336
238 239 241 244 240 242 240 239 227 227 238 232 237 228 213 221 211 212 217 224 232 232 237 236 246 252 252 253 273 291 302 308 310 317 325 326 326 328 331 334 334 333 333 334
234 237 241 238 240 240 242 238 238 225 233 235 240 239 232 228 223 224 224 231 232 231 234 245 251 250 260 273 285 293 298 302 307 313 318 322 323 324 329 332 331 332 331 329
231 231 235 235 237 243 244 240 240 238 232 237 242 245 237 244 236 239 240 241 245 250 254 243 246 252 265 278 288 295 299 303 306 312 316 317 321 325 327 329 331 328 327 325
231 229 235 236 234 238 242 239 235 236 232 231 236 238 237 235 238 241 239 241 247 252 256 260 259 264 271 279 284 287 292 297 303 310 312 316 322 323 324 325 325 325 324 319
230 228 231 232 233 230 239 241 237 234 233 227 235 235 241 230 235 238 241 245 247 252 253 254 258 262 269 275 279 286 291 296 302 307 311 314 316 318 319 320 321 318 318 316
229 228 229 231 232 233 232 235 233 232 235 233 232 237 241 234 235 243 241 241 247 251 256 260 265 268 272 275 280 285 290 295 300 303 307 309 313 313 316 318 318 318 317 317
231 228 227 228 232 235 231 235 240 236 233 233 231 234 243 237 235 240 245 246 247 250 254 257 262 267 271 276 280 285 289 293 297 300 303 307 310 313 315 316 316 317 317 320
235 226 227 227 229 231 232 229 232 234 232 235 233 233 245 244 240 241 245 247 251 253 256 258 261 266 270 273 277 282 286 291 294 297 300 305 308 311 312 314 314 315 316 317
237 230 226 225 226 229 231 231 231 233 233 232 233 232 240 248 247 246 247 250 254 257 260 261 263 265 269 272 275 279 285 289 292 293 296 303 305 307 311 313 311 313 318 320
237 235 228 226 226 227 230 230 230 232 231 230 232 231 235 244 251 249 248 249 253 257 259 261 262 263 268 273 277 282 285 288 291 293 298 300 302 305 308 309 303 311 316 319
240 237 232 225 225 226 227 230 230 228 229 229 225 227 230 234 241 248 252 253 254 254 258 261 264 267 270 273 277 282 285 286 289 291 294 297 300 303 305 299 301 308 313 316
244 238 234 227 224 226 226 227 230 230 229 228 227 223 224 231 240 242 249 252 254 257 260 262 265 269 272 275 278 281 282 284 287 290 292 294 297 302 301 297 300 300 311 317
244 238 233 230 227 225 226 227 229 230 231 232 233 229 224 228 235 239 240 244 250 254 257 260 264 266 270 273 276 278 280 283 286 287 289 293 298 303 300 296 298 301 305 308
242 238 237 235 231 226 226 227 228 229 230 232 232 231 229 230 235 237 239 242 245 249 254 257 261 263 265 268 272 275 279 283 286 289 292 297 300 299 298 296 299 304 306 304
241 239 236 240 238 228 226 226 227 228 228 230 233 234 232 232 236 240 241 243 245 248 251 255 257 260 263 266 270 273 277 281 284 288 293 297 299 298 297 297 301 302 304 303
239 237 235 240 242 238 228 228 230 228 226 228 231 232 234 234 236 240 240 242 245 248 251 255 258 261 263 266 268 272 276 280 285 289 293 296 296 297 298 299 299 301 303 302
237 237 236 235 240 240 233 230 230 229 226 228 229 228 229 233 236 240 242 244 246 249 252 255 258 261 264 267 270 274 277 281 285 290 293 294 295 294 297 297 298 302 301 299
236 236 235 237 238 240 239 232 233 231 227 227 229 230 232 233 237 240 243 245 247 249 252 255 259 263 265 269 272 275 277 281 284 287 289 290 291 293 294 297 300 301 298 297
232 235 233 236 238 238 234 232 234 232 230 227 228 228 231 233 236 239 242 245 248 249 253 257 262 266 269 271 272 274 277 279 282 283 285 288 289 290 294 296 298 298 298 296
229 232 235 237 236 237 231 235 233 233 228 227 228 229 231 234 236 239 242 245 249 252 256 259 261 264 267 269 271 273 275 279 281 282 283 285 290 292 295 296 296 294 294 292
229 232 234 234 236 230 228 225 231 236 235 230 229 231 233 235 238 239 242 245 248 251 254 258 260 263 266 268 271 272 277 279 281 282 283 286 289 292 293 293 292 293 295 293
221 227 229 227 231 231 225 228 236 237 241 233 230 231 232 234 238 240 243 246 247 251 255 258 260 262 264 267 270 273 279 280 280 282 285 288 288 290 292 291 292 293 293 292
Height
10959 10960 10961 10967 10969 10970 10972 10973 10973 10971 10972 10972 10971 10971 10971 10972 10974 10976 10978 10979 10979 10979 10978 10979 10980 10980 10981 10982 10983 10982 10982 10981 10981 10980 10979 10978 10977 10976 10974 10972 10971 10968 10966 10962
10954 10953 10952 10959 10964 10965 10968 10969 10970 10971 10970 10972 10972 10971 10971 10973 10975 10975 10977 10978 10979 10979 10979 10980 10980 10981 10981 10982 10982 10982 10981 10980 10979 10979 10978 10977 10975 10974 10972 10970 10968 10965 10961 10958
10943 10942 10943 10951 10956 10959 10961 10963 10965 10967 10969 10970 10971 10970 10970 10971 10973 10974 10976 10977 10979 10978 10978 10979 10980 10980 10980 10980 10980 10980 10979 10978 10977 10977 10976 10976 10974 10973 10970 10968 10965 10962 10958 10954
10931 10932 10935 10942 10947 10950 10954 10954 10959 10963 10964 10966 10967 10968 10968 10969 10970 10972 10973 10975 10976 10976 10977 10977 10978 10978 10978 10977 10977 10976 10976 10976 10975 10975 10974 10973 10971 10969 10967 10964 10961 10957 10953 10949
10920 10921 10923 10933 10936 10938 10940 10947 10953 10956 10958 10962 10962 10962 10965 10965 10967 10969 10971 10972 10973 10974 10974 10974 10974 10975 10975 10974 10974 10974 10973 10973 10972 10971 10971 10969 10967 10964 10962 10959 10954 10950 10946 10942
10902 10908 10910 10920 10921 10925 10926 10938 10944 10950 10951 10957 10956 10958 10959 10960 10963 10964 10967 10968 10969 10969 10969 10971 10971 10970 10970 10970 10969 10969 10969 10969 10968 10968 10966 10965 10962 10960 10956 10952 10947 10943 10939 10936
10881 10894 10894 10902 10911 10911 10915 10929 10936 10941 10947 10950 10949 10951 10953 10955 10957 10959 10961 10963 10963 10964 10964 10964 10966 10966 10965 10964 10964 10964 10964 10963 10963 10962 10960 10959 10956 10953 10949 10945 10942 10938 10934 10931
10862 10878 10882 10890 10898 10901 10901 10913 10925 10930 10936 10939 10938 10945 10944 10950 10952 10952 10954 10956 10957 10958 10959 10958 10959 10960 10960 10960 10959 10959 10959 10959 10957 10956 10955 10953 10950 10947 10943 10939 10936 10933 10929 10924
10839 10856 10857 10869 10874 10883 10891 10895 10912 10916 10922 10928 10930 10932 10935 10943 10944 10944 10947 10949 10950 10952 10954 10954 10954 10955 10954 10955 10953 10953 10953 10953 10952 10950 10948 10946 10943 10941 10938 10936 10932 10927 10923 10918
10817 10827 10839 10849 10852 10866 10879 10882 10885 10902 10912 10921 10920 10924 10924 10933 10935 10934 10939 10941 10943 10945 10945 10947 10947 10947 10947 10947 10947 10947 10946 10946 10945 10944 10942 10939 10936 10934 10931 10928 10923 10918 10914 10908
10788 10803 10812 10823 10841 10855 10864 10872 10876 10887 10896 10906 10910 10914 10908 10921 10925 10925 10927 10931 10934 10936 10937 10939 10940 10939 10938 10938 10938 10938 10939 10938 10938 10937 10934 10932 10929 10926 10923 10918 10914 10910 10903 10898
10762 10776 10791 10808 10821 10826 10836 10849 10856 10866 10886 10896 10901 10901 10894 10906 10915 10916 10917 10920 10923 10926 10927 10930 10932 10931 10930 10930 10931 10932 10931 10931 10930 10928 10926 10924 10922 10918 10915 10910 10905 10902 10896 10892
10738 10758 10770 10782 10794 10803 10820 10837 10851 10859 10868 10880 10887 10893 10889 10884 10897 10903 10906 10910 10911 10914 10916 10919 10922 10922 10921 10921 10922 10923 10923 10922 10920 10919 10917 10916 10913 10910 10906 10901 10896 10893 10888 10879
10722 10736 10754 10766 10779 10789 10797 10816 10829 10837 10850 10865 10879 10880 10882 10880 10879 10885 10894 10899 10902 10904 10905 10908 10910 10911 10912 10912 10911 10912 10913 10911 10909 10906 10907 10905 10903 10900 10898 10893 10888 10883 10877 10870
10707 10719 10732 10743 10754 10765 10778 10795 10806 10816 10835 10844 10859 10867 10872 10874 10862 10869 10877 10885 10891 10893 10892 10894 10896 10900 10901 10901 10901 10902 10900 10899 10898 10896 10895 10894 10891 10891 10888 10884 10878 10872 10868 10860
10692 10700 10710 10722 10732 10739 10752 10770 10783 10801 10814 10827 10833 10850 10856 10855 10849 10860 10867 10870 10875 10877 10877 10879 10882 10887 10887 10889 10890 10889 10885 10885 10886 10885 10882 10883 10880 10878 10875 10870 10869 10864 10860 10853
10674 10683 10693 10704 10708 10716 10729 10756 10772 10787 10800 10813 10828 10841 10832 10836 10837 10843 10851 10857 10861 10863 10864 10867 10870 10875 10878 10879 10879 10875 10871 10874 10872 10870 10869 10868 10867 10864 10860 10856 10854 10854 10852 10846
10658 10668 10677 10683 10685 10697 10726 10733 10745 10760 10776 10792 10807 10811 10822 10825 10820 10823 10835 10844 10849 10850 10851 10854 10858 10863 10867 10869 10866 10863 10858 10862 10856 10851 10851 10852 10851 10848 10846 10843 10837 10836 10833 10830
10644 10652 10661 10667 10674 10690 10704 10702 10716 10733 10757 10774 10792 10802 10807 10805 10805 10812 10823 10829 10833 10837 10837 10839 10843 10849 10853 10856 10852 10850 10847 10846 10842 10839 10838 10837 10834 10831 10829 10827 10824 10820 10816 10811
10629 10638 10648 10657 10662 10672 10675 10694 10703 10713 10738 10757 10770 10783 10790 10785 10791 10799 10807 10811 10817 10821 10821 10822 10827 10832 10837 10838 10836 10833 10834 10833 10830 10827 10824 10822 10819 10816 10813 10810 10809 10806 10800 10793
10615 10626 10635 10642 10647 10652 10666 10674 10680 10691 10728 10734 10745 10756 10758 10769 10772 10777 10792 10795 10801 10804 10806 10807 10811 10815 10820 10821 10820 10820 10820 10819 10818 10816 10810 10804 10803 10802 10799 10796 10792 10789 10784 10778
10601 10611 10621 10626 10636 10642 10649 10656 10662 10676 10703 10715 10726 10736 10744 10754 10759 10765 10774 10779 10784 10788 10791 10791 10795 10800 10805 10807 10806 10805 10805 10808 10806 10803 10799 10793 10789 10787 10786 10780 10776 10772 10765 10759
10585 10597 10608 10612 10622 10631 10633 10640 10647 10662 10679 10692 10702 10715 10724 10734 10739 10749 10758 10763 10768 10770 10776 10782 10783 10786 10788 10789 10790 10787 10791 10793 10793 10790 10788 10781 10775 10771 10769 10765 10760 10755 10748 10742
10573 10584 10593 10600 10612 10619 10624 10630 10636 10642 10655 10670 10685 10695 10707 10717 10726 10736 10742 10747 10753 10760 10765 10767 10768 10771 10769 10769 10771 10771 10774 10778 10776 10774 10771 10765 10760 10755 10750 10746 10742 10737 10731 10726
10568 10574 10583 10596 10599 10607 10613 10622 10626 10634 10645 10659 10672 10681 10694 10705 10714 10722 10727 10731 10739 10745 10747 10748 10750 10753 10752 10752 10753 10752 10759 10760 10759 10756 10752 10750 10745 10738 10733 10728 10723 10717 10711 10705
10551 10562 10573 10585 10590 10600 10608 10617 10623 10630 10635 10643 10654 10662 10675 10685 10696 10706 10714 10716 10724 10727 10730 10730 10731 10736 10735 10735 10735 10739 10743 10741 10738 10737 10733 10729 10725 10721 10716 10709 10703 10697 10690 10684